Regional Weather Roundup
Issued by NWS Binghamton, NY

Home | Current Version | Previous Version | Text Only | Print | Product List | Glossary On
Versions: 1 2 3 4 5 6 7 8 9 10 11 12 13 14 15 16 17 18 19 20 21 22 23 24 25 26 27 28 29 30 31 32 33 34 35 36 37 38 39 40 41 42 43 44 45 46 47 48 49 50
000
ASUS41 KBGM 311810
RWRBGM
RWRBGM
BINGHAMTON REGIONAL WEATHER ROUNDUP
NATIONAL WEATHER SERVICE BINGHAMTON NY
200 PM EDT MON AUG 31 2015

Note: "fair" indicates few or no clouds below 12,000 feet with no
significant weather and/or obstructions to visibility.

* = Station(s) that does not report precipitation, such as rain,
snow, etc, also no thunder or fog.

!NYZ009-015>018-022>025-036-037-044>046-055>057-062-311900
...CENTRAL NEW YORK...

CITY           SKY/WX    TMP DP  RH WIND       PRES   REMARKS
BINGHAMTON     PTSUNNY   79  65  62 NW7       30.06F
CORTLAND       PTSUNNY   82  64  54 W7G16     30.06F
DANSVILLE      PTSUNNY   85  65  51 NW13      30.04F HX  86
ELMIRA         SUNNY     88  64  44 W14G21    30.02F HX  89
ITHACA         MOSUNNY   82  66  58 NW14      30.06F
HORNELL        MOSUNNY   81  63  54 NW9         N/A
MONTICELLO     PTSUNNY   79  66  65 W6G20     30.07F
NORWICH        MOSUNNY   82  64  54 W6        30.03F
ONEONTA        SUNNY     79  61  53 W8        30.06S
PENN YAN       MOSUNNY   83  64  52 W12G18    30.04F
ROME           PTSUNNY   80  67  64 NW13      30.01F
SIDNEY         SUNNY     84  68  58 W8        30.03F HX  87
SYRACUSE       MOSUNNY   83  68  60 W13       30.00F HX  86
$$

!PAZ038>040-043-044-047-048-072-311900
...NORTHEAST PENNSYLVANIA...

CITY           SKY/WX    TMP DP  RH WIND       PRES   REMARKS
HAZLETON       PTSUNNY   81  66  61 W5        30.13F
SCRANTON       LGT RAIN  80  70  71 N8        30.05F
TOWANDA*       MOSUNNY   84  64  51 W9G16     30.03F HX  86
$$
&&
KEY
WCI = WIND CHILL INDEX
VSB = VISIBILITY
HX  = HEAT INDEX
$$



USA.gov is the U.S. government's official web portal to all federal, state and local government web resources and services.